GW4455 Weather Reports


time (UTC)temp
C
wind
direction
speed
KPH
gust
KPH
rain 1hr
cm
rain 24hr
cm
rain mn
cm
humidity
%
barometer
mb
20260906215502 31 234 8.0 20.9 0.00 0.00 0.00 12 1014.2
20260906214822 31 226 14.5 20.9 0.00 0.00 0.00 12 1014.2
20260906214142 31 238 8.0 32.2 0.00 0.00 0.00 12 1014.2
20260906213502 31 239 11.3 32.2 0.00 0.00 0.00 12 1014.2
20260906212822 31 231 11.3 25.7 0.00 0.00 0.00 12 1014.2
20260906212142 32 215 11.3 32.2 0.00 0.00 0.00 12 1014.2
20260906211502 32 205 11.3 32.2 0.00 0.00 0.00 11 1014.2
20260906210822 31 251 9.7 25.7 0.00 0.00 0.00 13 1014.6
20260906210142 31 227 14.5 30.6 0.00 0.00 0.00 13 1014.6
20260906205502 31 224 16.1 27.4 0.00 0.00 0.00 13 1014.6
20260906204822 31 217 16.1 29.0 0.00 0.00 0.00 12 1015.0
20260906204142 31 203 17.7 33.8 0.00 0.00 0.00 12 1015.0
20260906203502 31 219 16.1 33.8 0.00 0.00 0.00 12 1015.0
20260906202822 31 208 14.5 29.0 0.00 0.00 0.00 12 1015.4
20260906202142 31 219 19.3 29.0 0.00 0.00 0.00 12 1015.4
20260906201502 31 212 17.7 37.0 0.00 0.00 0.00 12 1015.4
20260906200822 31 208 16.1 40.2 0.00 0.00 0.00 12 1015.4
20260906200142 32 211 14.5 38.6 0.00 0.00 0.00 13 1015.4
20260906195502 31 236 19.3 38.6 0.00 0.00 0.00 13 1015.4
20260906194822 31 197 12.9 32.2 0.00 0.00 0.00 13 1015.4
20260906193502 31 247 14.5 27.4 0.00 0.00 0.00 13 1015.4
20260906192822 31 230 14.5 32.2 0.00 0.00 0.00 13 1015.4
20260906192142 30 219 22.5 38.6 0.00 0.00 0.00 13 1015.8
20260906190822 30 222 20.9 32.2 0.00 0.00 0.00 13 1015.8
20260906190142 30 217 20.9 33.8 0.00 0.00 0.00 13 1016.2
20260906185502 31 213 19.3 33.8 0.00 0.00 0.00 13 1016.2
20260906184822 30 190 17.7 35.4 0.00 0.00 0.00 13 1016.2
20260906184142 30 224 24.1 33.8 0.00 0.00 0.00 14 1016.6
20260906183502 30 207 9.7 29.0 0.00 0.00 0.00 14 1016.6
20260906180822 30 217 17.7 27.4 0.00 0.00 0.00 14 1017.0
20260906174822 30 226 20.9 32.2 0.00 0.00 0.00 14 1017.4
20260906174142 30 232 16.1 32.2 0.00 0.00 0.00 14 1017.4
20260906173502 29 217 14.5 37.0 0.00 0.00 0.00 15 1017.4
20260906172822 29 229 16.1 29.0 0.00 0.00 0.00 14 1017.7
20260906171502 28 239 16.1 25.7 0.00 0.00 0.00 16 1017.7
20260906170822 28 230 16.1 24.1 0.00 0.00 0.00 17 1017.7
20260906170142 28 230 9.7 24.1 0.00 0.00 0.00 18 1017.7
20260906165502 28 225 9.7 20.9 0.00 0.00 0.00 19 1017.7
20260906164822 27 111 4.8 11.3 0.00 0.00 0.00 26 1017.7
20260906163502 26 216 3.2 8.0 0.00 0.00 0.00 27 1018.1
20260906162822 25 59 1.6 8.0 0.00 0.00 0.00 30 1018.1
20260906160822 23 212 1.6 4.8 0.00 0.00 0.00 35 1018.5
20260906155502 22 300 3.2 8.0 0.00 0.00 0.00 38 1018.5
20260906154822 21 285 4.8 8.0 0.00 0.00 0.00 39 1018.5
20260906153502 20 229 3.2 8.0 0.00 0.00 0.00 41 1018.5
20260906152821 20 250 3.2 8.0 0.00 0.00 0.00 42 1018.5
20260906152141 20 235 4.8 6.4 0.00 0.00 0.00 41 1018.5
20260906150821 18 228 1.6 6.4 0.00 0.00 0.00 44 1018.9
20260906150141 18 203 1.6 6.4 0.00 0.00 0.00 44 1018.9
20260906145501 18 222 3.2 6.4 0.00 0.00 0.00 44 1018.9
20260906144821 17 271 3.2 6.4 0.00 0.00 0.00 45 1018.9
20260906144141 18 230 3.2 6.4 0.00 0.00 0.00 45 1018.9
20260906143501 17 225 3.2 6.4 0.00 0.00 0.00 46 1018.9
20260906142821 17 279 1.6 6.4 0.00 0.00 0.00 47 1018.9
20260906142141 17 183 1.6 4.8 0.00 0.00 0.00 48 1018.9
20260906141501 16 215 1.6 6.4 0.00 0.00 0.00 51 1018.9
20260906140821 15 276 1.6 6.4 0.00 0.00 0.00 53 1018.9
20260906135501 15 227 3.2 4.8 0.00 0.00 0.00 54 1018.9
20260906134821 14 243 1.6 4.8 0.00 0.00 0.00 56 1018.9
20260906134141 14 298 3.2 4.8 0.00 0.00 0.00 53 1018.9
20260906133501 14 205 1.6 3.2 0.00 0.00 0.00 55 1018.9
20260906132141 13 301 0.0 3.2 0.00 0.00 0.00 57 1018.9
20260906130822 12 40 1.6 3.2 0.00 0.00 0.00 59 1018.9
20260906125502 12 334 1.6 4.8 0.00 0.00 0.00 60 1018.5
20260906124142 13 316 3.2 4.8 0.00 0.00 0.00 60 1018.5
20260906123502 13 103 1.6 4.8 0.00 0.00 0.00 61 1018.9
20260906122822 13 123 1.6 3.2 0.00 0.00 0.00 60 1018.5
20260906122142 14 252 1.6 3.2 0.00 0.00 0.00 56 1018.9
20260906121502 14 200 1.6 4.8 0.00 0.00 0.00 58 1018.5
20260906120822 13 192 1.6 4.8 0.00 0.00 0.00 59 1018.5
20260906120142 14 285 1.6 4.8 0.00 0.00 0.00 58 1018.5
20260906114822 14 239 3.2 6.4 0.00 0.00 0.00 55 1018.5
20260906114142 15 255 3.2 6.4 0.00 0.00 0.00 53 1018.9
20260906113502 15 202 1.6 4.8 0.00 0.00 0.00 51 1018.5
20260906112822 15 227 3.2 9.7 0.00 0.00 0.00 52 1018.5
20260906112142 15 234 6.4 8.0 0.00 0.00 0.00 50 1018.5
20260906111502 15 238 4.8 6.4 0.00 0.00 0.00 50 1018.5
20260906110142 15 230 3.2 6.4 0.00 0.00 0.00 54 1018.5
20260906105502 15 168 1.6 3.2 0.00 0.00 0.00 52 1018.5
20260906104822 14 266 1.6 4.8 0.00 0.00 0.00 54 1018.5
20260906104142 15 262 1.6 4.8 0.00 0.00 0.00 51 1018.5
20260906103502 15 294 1.6 4.8 0.00 0.00 0.00 50 1018.5
20260906102822 15 299 1.6 4.8 0.00 0.00 0.00 53 1018.5
20260906101502 15 147 1.6 4.8 0.00 0.00 0.00 51 1018.5
20260906100822 15 305 1.6 4.8 0.00 0.00 0.00 52 1018.5
20260906100142 15 279 1.6 4.8 0.00 0.00 0.00 50 1018.5
20260906095502 15 309 3.2 4.8 0.00 0.00 0.00 50 1018.1
20260906094822 15 311 1.6 4.8 0.00 0.00 0.00 50 1018.5
20260906093502 16 302 3.2 4.8 0.00 0.00 0.00 47 1018.1
20260906092822 16 328 3.2 4.8 0.00 0.00 0.00 48 1018.1
20260906091502 17 317 3.2 4.8 0.00 0.00 0.00 46 1018.1
20260906090822 17 258 3.2 6.4 0.00 0.00 0.00 47 1018.1
20260906090142 17 292 3.2 4.8 0.00 0.00 0.00 44 1018.1
20260906085502 18 261 3.2 8.0 0.00 0.00 0.00 42 1018.1
20260906084142 18 260 4.8 8.0 0.00 0.00 0.00 40 1018.1
20260906083502 18 257 4.8 14.5 0.00 0.00 0.00 39 1018.1
20260906082822 18 243 8.0 14.5 0.00 0.00 0.00 40 1018.1
20260906082142 18 256 8.0 12.9 0.00 0.00 0.00 40 1018.1
20260906081502 18 259 4.8 12.9 0.00 0.00 0.00 39 1018.1
20260906080822 18 252 6.4 12.9 0.00 0.00 0.00 40 1018.1
20260906075502 18 237 8.0 16.1 0.00 0.00 0.00 39 1018.1
20260906074822 18 250 6.4 16.1 0.00 0.00 0.00 39 1018.1
20260906072822 18 236 9.7 17.7 0.00 0.00 0.00 38 1018.1
20260906072142 18 230 12.9 17.7 0.00 0.00 0.00 38 1018.1
20260906071502 18 226 12.9 19.3 0.00 0.00 0.00 38 1017.7
20260906070822 18 228 12.9 19.3 0.00 0.00 0.00 38 1017.7
20260906070142 18 233 11.3 16.1 0.00 0.00 0.00 38 1017.7
20260906065502 19 235 9.7 17.7 0.00 0.00 0.00 37 1017.7
20260906064822 19 243 8.0 17.7 0.00 0.00 0.00 37 1017.7
20260906064142 19 227 11.3 17.7 0.00 0.00 0.00 37 1017.7
20260906063502 20 258 3.2 9.7 0.00 0.00 0.00 34 1017.7
20260906062822 20 206 3.2 16.1 0.00 0.00 0.00 36 1018.1
20260906062142 20 217 9.7 17.7 0.00 0.00 0.00 35 1017.7
20260906061502 20 250 8.0 16.1 0.00 0.00 0.00 34 1017.7
20260906060822 20 239 8.0 16.1 0.00 0.00 0.00 34 1017.7
20260906060142 20 231 9.7 14.5 0.00 0.00 0.00 34 1017.7
20260906055502 20 258 8.0 12.9 0.00 0.00 0.00 33 1017.7
20260906054822 21 239 6.4 14.5 0.00 0.00 0.00 33 1017.7
20260906054142 21 254 6.4 12.9 0.00 0.00 0.00 33 1017.7
20260906053502 21 226 9.7 14.5 0.00 0.00 0.00 32 1017.7
20260906052822 20 228 8.0 14.5 0.00 0.00 0.00 33 1017.7
20260906050822 21 227 3.2 6.4 0.00 0.00 0.00 30 1017.7
20260906050142 21 238 4.8 8.0 0.00 0.00 0.00 31 1017.7
20260906044822 21 252 3.2 6.4 0.00 0.00 0.00 31 1017.7
20260906044142 21 298 3.2 12.9 0.00 0.00 0.00 30 1017.4
20260906043502 21 317 8.0 17.7 0.00 0.00 0.00 32 1017.7
20260906042822 22 297 11.3 17.7 0.00 0.00 0.00 37 1017.4
20260906042142 23 226 4.8 8.0 0.00 0.00 0.00 27 1017.4
20260906041502 23 227 4.8 9.7 0.00 0.00 0.00 28 1017.4
20260906040822 23 231 3.2 6.4 0.00 0.00 0.00 28 1017.4
20260906040142 23 238 3.2 4.8 0.00 0.00 0.00 28 1017.4
20260906035502 24 207 1.6 6.4 0.00 0.00 0.00 28 1017.4
20260906034142 23 156 1.6 3.2 0.00 0.00 0.00 32 1017.4
20260906033502 24 329 1.6 3.2 0.00 0.00 0.00 32 1017.4
20260906032822 25 103 1.6 4.8 0.00 0.00 0.00 29 1017.7
20260906032142 26 220 1.6 4.8 0.00 0.00 0.00 27 1017.4
20260906031502 26 219 1.6 4.8 0.00 0.00 0.00 27 1017.4
20260906030142 27 251 1.6 3.2 0.00 0.00 0.00 24 1017.4
20260906025502 27 163 1.6 6.4 0.00 0.00 0.00 22 1017.4
20260906024822 27 220 3.2 6.4 0.00 0.00 0.00 22 1017.4
20260906023502 28 163 1.6 3.2 0.00 0.00 0.00 19 1017.4
20260906022142 30 197 1.6 4.8 0.00 0.00 0.00 18 1017.0
20260906021502 30 234 3.2 6.4 0.00 0.00 0.00 17 1017.0
20260906020142 30 156 3.2 14.5 0.00 0.00 0.00 17 1017.0
20260906014822 30 130 4.8 12.9 0.00 0.00 0.00 19 1017.0
20260906014142 30 164 8.0 12.9 0.00 0.00 0.00 19 1017.0
20260906013502 30 175 6.4 14.5 0.00 0.00 0.00 19 1017.0
20260906012822 30 205 1.6 14.5 0.00 0.00 0.00 19 1017.0
20260906012142 30 170 6.4 17.7 0.00 0.00 0.00 18 1016.6
20260906011502 30 187 9.7 17.7 0.00 0.00 0.00 18 1016.6
20260906010142 31 198 4.8 17.7 0.00 0.00 0.00 17 1016.6
20260906005502 30 191 9.7 19.3 0.00 0.00 0.00 17 1016.6
20260906004822 31 218 8.0 16.1 0.00 0.00 0.00 17 1016.6
20260906004142 31 217 11.3 19.3 0.00 0.00 0.00 16 1016.6
20260906003502 31 221 11.3 19.3 0.00 0.00 0.00 16 1016.2
20260906002822 32 215 6.4 16.1 0.00 0.00 0.00 15 1016.2
20260906002142 32 238 4.8 24.1 0.00 0.00 0.00 15 1016.2
20260906001502 31 228 6.4 17.7 0.00 0.00 0.00 15 1016.2
20260906000822 31 228 12.9 20.9 0.00 0.00 0.00 16 1016.2
20260906000142 31 205 9.7 25.7 0.00 0.00 0.00 16 1016.2
20260905235502 32 222 11.3 29.0 0.00 0.00 0.00 15 1016.2
20260905234822 32 214 9.7 29.0 0.00 0.00 0.00 16 1016.2
20260905234142 32 204 6.4 12.9 0.00 0.00 0.00 16 1016.2
20260905233502 32 211 4.8 22.5 0.00 0.00 0.00 16 1016.2
20260905232822 31 221 14.5 20.9 0.00 0.00 0.00 16 1016.2
20260905232142 32 251 8.0 22.5 0.00 0.00 0.00 16 1016.2
20260905231502 31 247 9.7 27.4 0.00 0.00 0.00 16 1016.2
20260905230142 32 255 12.9 22.5 0.00 0.00 0.00 16 1016.2
20260905225502 32 238 4.8 27.4 0.00 0.00 0.00 17 1016.2
20260905224822 31 224 14.5 27.4 0.00 0.00 0.00 16 1016.2
20260905224142 31 210 9.7 22.5 0.00 0.00 0.00 16 1016.2
20260905223502 31 226 16.1 22.5 0.00 0.00 0.00 16 1016.2
20260905222822 31 217 11.3 24.1 0.00 0.00 0.00 16 1016.6
20260905221502 31 214 11.3 20.9 0.00 0.00 0.00 16 1016.6
20260905220822 32 224 8.0 17.7 0.00 0.00 0.00 15 1016.6
20260905220142 31 220 6.4 29.0 0.00 0.00 0.00 17 1016.6